Hourly Weather Bolshie Verezi

Today, 3 August, Tuesday

Time Temperature Precipitation Wind Pressure Humidity
00:00 +23°C° 0 mm 2 mps 750 mmHg 59%
01:00 +23°C° 0 mm 2 mps 750 mmHg 58%
02:00 +21°C° 0 mm 2 mps 750 mmHg 58%
03:00 +21°C° 0 mm 3 mps 750 mmHg 57%
04:00 +22°C° 0.1 mm 3 mps 750 mmHg 60%
05:00 +22°C° 0.1 mm 3 mps 750 mmHg 63%
06:00 +22°C° 0.1 mm 3 mps 749 mmHg 65%
07:00 +26°C° 0 mm 3 mps 749 mmHg 58%
08:00 +28°C° 0 mm 4 mps 749 mmHg 50%
09:00 +32°C° 0 mm 5 mps 749 mmHg 40%
10:00 +33°C° 0 mm 5 mps 749 mmHg 37%
11:00 +35°C° 0 mm 6 mps 749 mmHg 33%
12:00 +38°C° 0 mm 6 mps 748 mmHg 29%
13:00 +38°C° 0 mm 6 mps 748 mmHg 28%
14:00 +38°C° 0 mm 6 mps 748 mmHg 27%
15:00 +38°C° 0 mm 6 mps 748 mmHg 25%
16:00 +36°C° 0 mm 6 mps 748 mmHg 31%
17:00 +34°C° 0 mm 6 mps 748 mmHg 37%
18:00 +32°C° 0 mm 6 mps 748 mmHg 43%
19:00 +28°C° 0 mm 5 mps 748 mmHg 56%
20:00 +24°C° 0 mm 3 mps 749 mmHg 70%
21:00 +21°C° 0 mm 1 mps 749 mmHg 84%
22:00 +21°C° 0.1 mm 1 mps 749 mmHg 83%
23:00 +21°C° 0.1 mm 1 mps 749 mmHg 82%

Tomorrow, 4 August, Wednesday

Time Temperature Precipitation Wind Pressure Humidity
00:00 +19°C° 0.1 mm 0 mps 749 mmHg 81%
01:00 +21°C° 0 mm 1 mps 749 mmHg 82%
02:00 +21°C° 0 mm 1 mps 749 mmHg 83%
03:00 +20°C° 0 mm 2 mps 749 mmHg 84%
04:00 +20°C° 0 mm 2 mps 749 mmHg 83%
05:00 +21°C° 0 mm 2 mps 749 mmHg 82%
06:00 +21°C° 0 mm 2 mps 749 mmHg 81%
07:00 +24°C° 0 mm 2 mps 749 mmHg 75%
08:00 +25°C° 0 mm 2 mps 749 mmHg 69%
09:00 +27°C° 0 mm 3 mps 749 mmHg 63%
10:00 +28°C° 0 mm 3 mps 749 mmHg 59%
11:00 +29°C° 0 mm 3 mps 749 mmHg 55%
12:00 +30°C° 0 mm 4 mps 749 mmHg 51%
13:00 +28°C° 0.2 mm 5 mps 749 mmHg 58%
14:00 +26°C° 0.2 mm 5 mps 749 mmHg 65%
15:00 +24°C° 0.2 mm 6 mps 749 mmHg 72%
16:00 +23°C° 0 mm 5 mps 749 mmHg 73%
17:00 +22°C° 0 mm 5 mps 750 mmHg 74%
18:00 +21°C° 0 mm 5 mps 750 mmHg 75%
19:00 +20°C° 0 mm 4 mps 750 mmHg 80%
20:00 +18°C° 0 mm 3 mps 751 mmHg 85%
21:00 +17°C° 0 mm 3 mps 751 mmHg 91%
22:00 +17°C° 0 mm 2 mps 751 mmHg 91%
23:00 +16°C° 0 mm 2 mps 751 mmHg 92%

Day after tomorrow, 5 August, Thursday

Time Temperature Precipitation Wind Pressure Humidity
00:00 +16°C° 0 mm 2 mps 751 mmHg 92%
01:00 +16°C° 0 mm 2 mps 751 mmHg 92%
02:00 +16°C° 0 mm 1 mps 751 mmHg 91%
03:00 +15°C° 0 mm 1 mps 751 mmHg 90%
04:00 +16°C° 0 mm 1 mps 751 mmHg 87%
05:00 +18°C° 0 mm 1 mps 752 mmHg 83%
06:00 +20°C° 0 mm 1 mps 752 mmHg 79%
07:00 +20°C° 0 mm 2 mps 752 mmHg 70%
08:00 +23°C° 0 mm 2 mps 752 mmHg 62%
09:00 +25°C° 0 mm 2 mps 752 mmHg 53%
10:00 +25°C° 0 mm 3 mps 752 mmHg 48%
11:00 +25°C° 0 mm 4 mps 752 mmHg 44%
12:00 +26°C° 0 mm 4 mps 752 mmHg 40%
13:00 +26°C° 0 mm 4 mps 753 mmHg 40%
14:00 +25°C° 0 mm 4 mps 753 mmHg 41%
15:00 +25°C° 0 mm 4 mps 753 mmHg 41%
16:00 +23°C° 0 mm 4 mps 753 mmHg 44%
17:00 +23°C° 0 mm 4 mps 753 mmHg 47%
18:00 +22°C° 0 mm 3 mps 753 mmHg 50%
19:00 +21°C° 0 mm 3 mps 754 mmHg 51%
20:00 +20°C° 0 mm 3 mps 754 mmHg 52%
21:00 +19°C° 0 mm 2 mps 754 mmHg 54%
22:00 +18°C° 0 mm 2 mps 754 mmHg 57%
23:00 +16°C° 0 mm 2 mps 754 mmHg 60%

6 August, Friday

Time Temperature Precipitation Wind Pressure Humidity
00:00 +15°C° 0 mm 2 mps 754 mmHg 63%
01:00 +14°C° 0 mm 2 mps 754 mmHg 65%
02:00 +14°C° 0 mm 2 mps 755 mmHg 68%
03:00 +13°C° 0 mm 2 mps 755 mmHg 70%
04:00 +14°C° 0 mm 2 mps 755 mmHg 67%
05:00 +15°C° 0 mm 1 mps 755 mmHg 64%
06:00 +15°C° 0 mm 0 mps 756 mmHg 61%
07:00 +19°C° 0 mm 1 mps 756 mmHg 54%
08:00 +21°C° 0 mm 1 mps 756 mmHg 47%
09:00 +23°C° 0 mm 1 mps 756 mmHg 40%
10:00 +24°C° 0 mm 1 mps 756 mmHg 38%
11:00 +25°C° 0 mm 2 mps 755 mmHg 35%
12:00 +26°C° 0 mm 2 mps 755 mmHg 32%
13:00 +26°C° 0 mm 2 mps 755 mmHg 32%
14:00 +26°C° 0 mm 2 mps 755 mmHg 32%
15:00 +26°C° 0 mm 2 mps 755 mmHg 32%
16:00 +26°C° 0 mm 2 mps 755 mmHg 36%
17:00 +25°C° 0 mm 2 mps 755 mmHg 40%
18:00 +24°C° 0 mm 3 mps 755 mmHg 44%
19:00 +22°C° 0 mm 3 mps 755 mmHg 45%
20:00 +21°C° 0 mm 3 mps 755 mmHg 47%
21:00 +19°C° 0 mm 3 mps 755 mmHg 48%
22:00 +19°C° 0 mm 3 mps 755 mmHg 50%
23:00 +18°C° 0 mm 3 mps 755 mmHg 51%

7 August, Saturday

Time Temperature Precipitation Wind Pressure Humidity
00:00 +18°C° 0 mm 2 mps 755 mmHg 52%
01:00 +18°C° 0 mm 2 mps 755 mmHg 52%
02:00 +18°C° 0 mm 2 mps 755 mmHg 51%
03:00 +18°C° 0 mm 2 mps 755 mmHg 50%
04:00 +18°C° 0 mm 3 mps 755 mmHg 50%
05:00 +18°C° 0 mm 3 mps 756 mmHg 50%
06:00 +18°C° 0 mm 3 mps 756 mmHg 50%
07:00 +19°C° 0 mm 3 mps 756 mmHg 48%
08:00 +19°C° 0 mm 3 mps 756 mmHg 47%
09:00 +20°C° 0 mm 3 mps 756 mmHg 46%
10:00 +21°C° 0 mm 3 mps 756 mmHg 43%
11:00 +24°C° 0 mm 3 mps 756 mmHg 41%
12:00 +25°C° 0 mm 3 mps 756 mmHg 38%
13:00 +23°C° 0 mm 4 mps 756 mmHg 42%
14:00 +23°C° 0 mm 4 mps 756 mmHg 45%
15:00 +22°C° 0 mm 4 mps 756 mmHg 48%
16:00 +22°C° 0 mm 5 mps 756 mmHg 49%
17:00 +21°C° 0 mm 5 mps 756 mmHg 51%
18:00 +21°C° 0 mm 5 mps 756 mmHg 53%
19:00 +19°C° 0 mm 4 mps 756 mmHg 58%
20:00 +18°C° 0 mm 4 mps 756 mmHg 64%
21:00 +15°C° 0 mm 4 mps 756 mmHg 69%
22:00 +15°C° 0 mm 4 mps 757 mmHg 72%
23:00 +14°C° 0 mm 4 mps 757 mmHg 74%

8 August, Sunday

Time Temperature Precipitation Wind Pressure Humidity
00:00 +13°C° 0 mm 3 mps 757 mmHg 77%
01:00 +13°C° 0 mm 3 mps 757 mmHg 76%
02:00 +13°C° 0 mm 3 mps 757 mmHg 75%
03:00 +13°C° 0 mm 3 mps 758 mmHg 75%
04:00 +14°C° 0 mm 3 mps 758 mmHg 71%
05:00 +15°C° 0 mm 4 mps 758 mmHg 68%
06:00 +17°C° 0 mm 4 mps 758 mmHg 64%
07:00 +19°C° 0 mm 4 mps 758 mmHg 58%
08:00 +22°C° 0 mm 4 mps 758 mmHg 51%
09:00 +25°C° 0 mm 4 mps 758 mmHg 44%
10:00 +27°C° 0 mm 4 mps 757 mmHg 40%
11:00 +28°C° 0 mm 4 mps 757 mmHg 37%
12:00 +30°C° 0 mm 4 mps 757 mmHg 33%
13:00 +30°C° 0 mm 3 mps 757 mmHg 32%
14:00 +31°C° 0 mm 3 mps 757 mmHg 30%
15:00 +33°C° 0 mm 3 mps 756 mmHg 28%
16:00 +31°C° 0 mm 2 mps 756 mmHg 32%
17:00 +30°C° 0 mm 2 mps 756 mmHg 36%
18:00 +29°C° 0 mm 2 mps 756 mmHg 40%
19:00 +27°C° 0 mm 2 mps 756 mmHg 44%
20:00 +25°C° 0 mm 3 mps 756 mmHg 47%
21:00 +22°C° 0 mm 3 mps 756 mmHg 51%
22:00 +21°C° 0 mm 3 mps 756 mmHg 53%
23:00 +20°C° 0 mm 3 mps 756 mmHg 54%
Show more

We Need Your Consent

Meteoprog and our Service Providers may store and access personal data such as cookies, device identifiers or other similar technologies on your device and process such data to personalise content and ads, as well as provide social media features and to analyse the traffic.

  • Store and/or access information on your device

    Cookies, device identifiers or other information can be stored or accessed on your device for the purposes indicated above.

  • Personalised ads and content, ad and content measurement, audience insights, and products development

    Ads and content can be personalised based on a profile. More data can be added to better personalise ads and content. Ad and content performance can be measured. Insights about the audience who saw the ads and content can be derived. Such data can be used to develop or improve user’s experience, systems and software.

By clicking ‘I Agree’ you will allow the use of indicated cookies, device identifiers, web beacons or other similar technologies. Your settings can be changed in the browser on your device.

For certain purposes, legitimate interests may be relied on, rather than consent. You can read more about this in our Privacy and Cookie Policy.